User: anonymous   Login
Location: Mentone
(34.5413°N, 85.5351°W)
Time: 12:45:40
(UTC-05:00)
Language:

Transit 2A Rocket - Orbit

View from above orbital plane
View from above orbital plane
View from above satellite
View from above satellite

Ground track
Ground track

The orbit data is extracted from the following two-line orbital elements,

1 00047U 60007C   15209.17164000  .00000028  00000-0  31338-4 0  9992
2 00047 066.6647 250.1127 0227916 171.8068 188.6864 14.41669985877594
Epoch (UTC): 28 July 2015 04:07:09
Eccentricity: 0.0227916
inclination: 66.6647°
perigee height: 590 km
apogee height: 915 km
right ascension of ascending node: 250.1127°
argument of perigee: 171.8068°
revolutions per day: 14.41669985
mean anomaly at epoch: 188.6864°
orbit number at epoch: 87759

The dashed part of the orbit path shows where the satellite is in the earth's shadow,  

DLR